sat.trackr.live / text

‹ back to catalog

STARLINK-5126

NORAD 54012 · 2022-125BA

PAYLOAD ACTIVE UNKNOWN

§ Identity

Operator
Country
US
Launch date
2022-10-05
Launch site
AFWTR
Launch vehicle
Mass (kg)
RCS (m²)

Purposes: comms

External: N2YO · Heavens-Above · Gunter

§ Orbital elements

Epoch: 2026-09-20T13:50:21.414336Z

Period
94.01 min
Inclination
53.1610°
Eccentricity
0.0001217
Mean motion
15.31677791 rev/d
Perigee alt
470.0 km
Apogee alt
471.6 km
Semi-major
6,848.9 km
B*
-7.8617e-5
RAAN
34.6110°
Arg perigee
101.8409°
Mean anomaly
258.2729°
Rev number
21,922

§ Raw data

STARLINK-51261 54012U 22125BA  26263.57663674 -.00002802  00000+0 -78617-4 0  99932 54012  53.1610  34.6110 0001217 101.8409 258.2729 15.31677791219227

JSON: /api/v1/satellites/54012 · /tle

For live sub-satellite position, see the globe view (requires WebGL).

§ Visibility from observer

Set your observer location to see the next 7 days of passes ≥ 10°. The values pass through the URL so the page stays shareable.

No JS? Fill the form by hand. The geolocation button needs JavaScript.